Tracking 29892 objects as of 21-Nov-2024
HD Live streaming from Space Station
objects crossing your sky now

STARLINK-5260

Track STARLINK-5260 now!
10-day predictions
STARLINK-5260 is classified as:


NORAD ID: 55275
Int'l Code: 2023-010G
Perigee: 577.3 km
Apogee: 581.1 km
Inclination: 70.0 °
Period: 96.1 minutes
Semi major axis: 6950 km
RCS: Unknown
Launch date: January 19, 2023
Source: United States (US)
Launch site: AIR FORCE WESTERN TEST RANGE (AFWTR)
Your satellite tracking list
Your tracking list is empty




NASA's NSSDC Master Catalog

Two Line Element Set (TLE):
1 55275U 23010G   24324.87445269  .00001623  00000-0  14381-3 0  9992
2 55275  69.9983 141.7500 0002708 263.6148  96.4703 14.98324705102156
Source of the keplerian elements: AFSPC